Hourly Data Report for June 24, 2012

All times are specified in Local Standard Time (LST). Add 1 hour to adjust for Daylight Saving Time where and when it is observed.

MONCTON INTL A
NEW BRUNSWICK

46°06'44.000" N
64°40'43.000" W
70.70 m
8103201
71705
YQM

Download Data

Hourly Data (June 2012)
Hourly Data Report for June 24, 2012
Temp Definition
°C
Dew Point Temp Definition
°C
Rel Hum Definition
%
Wind Dir Definition
10's deg

Wind Spd Definition
km/h
Visibility Definition
km
Stn Press Definition
kPa
Hmdx Definition


Wind Chill Definition


Weather Definition


TIME
00:00 12.7 12.4 98 7 12 10.0 100.25     Rain
01:00 12.7 12.6 99 7 15 10.0 100.19     Rain
02:00
03:00 12.6 12.5 99 6 10 10.0 100.10     Rain,Drizzle
04:00 12.7 12.6 99 4 9 10.0 100.05     Drizzle
05:00 12.8 12.8 100 5 6 4.0 100.01     Drizzle,Fog
06:00 13.1 13.1 100 2 8 2.0 99.99     Drizzle,Fog
07:00 13.6 13.6 100 3 4 1.6 99.99     Drizzle,Fog
08:00 14.5 14.4 99 3 4 2.0 99.98     Drizzle,Fog
09:00 15.1 14.3 95 10 5 2.4 99.97     Drizzle,Fog
10:00 15.8 14.9 94 25 5 2.4 99.96     Drizzle,Fog
11:00 17.0 15.0 88 16 6 10.0 99.94     Cloudy
12:00 17.8 15.6 87 14 7 10.0 99.90     LegendNANA
13:00 17.7 15.5 87 14 7 10.0 99.87     LegendNANA
14:00 18.2 15.7 85 13 5 10.0 99.86     Cloudy
15:00 18.2 15.9 86 16 5 10.0 99.86     LegendNANA
16:00 17.4 16.4 94 17 5 10.0 99.87     LegendNANA
17:00 16.6 16.3 98 33 14 2.0 99.89     Rain Showers,Fog
18:00 16.5 16.2 98 34 11 4.8 99.90     Rain Showers,Fog
19:00 15.6 15.3 98 34 15 4.8 99.95     Rain Showers,Fog
20:00 15.2 14.9 98 33 12 10.0 100.01     Rain Showers
21:00 14.8 14.5 98 31 10 10.0 100.08     LegendNANA
22:00 14.6 14.3 98 30 10 10.0 100.10     LegendNANA
23:00 13.9 13.6 98 31 13 10.0 100.10     Rain Showers

Notes on Data Quality.

Legend

  • E = Estimated
  • M = Missing
  • NA = Not Available
Date modified: